Location: Newark
(43.6583°N, 1.6617°E)
Time: 21:15:13
(UTC+00:00)

Tiros 1 - Pass Details

Date: 01 September 2019
Orbit: 630 x 664 km, 48.4° (Epoch: 18 October)

Event Time Altitude Azimuth Distance (km) Brightness Sun altitude
Rises 00:11:34 0° 290° (WNW) 2,918 - -37.7°
Reaches altitude 10° 00:13:56 10° 294° (WNW) 2,010 - -37.7°
Maximum altitude 00:18:29 55° 13° (NNE) 760 - -37.6°
Drops below altitude 10° 00:23:03 10° 92° (E) 2,019 - -37.5°
Sets 00:25:25 0° 97° (E) 2,931 - -37.4°
